Wind_Speed
22 26 26 25 24 25 23 22 20 19 18 17 17 17 18 18 18 18 18 18 17 16 15 15 14 14 14 14 13 12 11 10 10 10 9 7 7 6 6 6 7 7 8
27 27 28 26 24 22 22 23 21 20 19 18 18 18 18 19 19 18 19 18 18 17 16 16 15 15 14 14 13 12 11 11 11 10 10 9 8 7 7 7 8 8 9
27 29 28 26 24 23 23 22 20 21 20 19 18 17 18 18 18 18 18 18 18 18 17 17 17 17 16 16 15 14 14 13 12 12 10 10 9 9 9 9 9 10 10
28 30 31 29 25 24 23 23 23 23 21 19 19 19 19 19 19 19 19 19 19 19 19 19 19 19 18 17 17 16 15 15 14 13 13 12 12 11 11 11 11 11 11
27 28 28 28 26 25 24 24 25 25 23 22 21 21 20 20 20 20 20 20 20 21 20 20 20 20 20 20 19 18 17 17 16 16 16 15 15 14 14 14 14 14 13
30 30 30 29 28 26 26 27 27 27 25 25 23 22 21 21 20 20 20 21 22 22 22 22 22 22 22 22 21 20 20 20 19 19 19 18 18 18 17 17 16 16 16
31 35 36 34 32 30 28 29 30 30 28 27 25 23 22 22 22 22 22 22 22 22 22 23 23 23 24 24 24 23 23 23 22 22 22 21 21 21 20 20 19 19 19
34 37 37 38 37 36 33 33 32 32 31 29 27 25 24 23 22 22 23 23 23 25 25 25 25 25 26 26 26 26 25 25 25 25 24 24 24 24 24 23 23 23 22
35 37 40 40 39 39 37 35 34 34 33 31 29 26 25 23 21 22 23 24 25 25 25 25 26 26 26 27 27 27 27 27 27 27 27 26 26 26 26 26 26 26 26
35 37 40 40 39 39 37 37 36 34 33 33 31 28 26 24 23 23 23 24 25 25 26 26 27 27 27 27 27 28 28 28 28 28 28 28 28 28 28 29 29 29 29
34 34 36 37 37 38 38 38 35 34 34 35 32 29 27 25 24 24 24 24 25 25 26 27 27 27 27 27 28 28 28 28 29 29 29 29 29 29 30 31 31 31 31
30 32 33 34 34 37 38 36 33 31 32 33 32 30 27 25 25 24 24 24 24 25 25 26 26 26 27 27 27 28 28 28 28 29 29 29 30 30 31 31 32 32 33
25 28 31 33 35 36 36 35 32 31 32 33 32 31 28 25 24 24 24 24 24 24 24 24 24 25 25 25 26 27 27 27 28 28 28 29 29 29 30 31 32 33 35
22 24 26 28 32 35 37 35 32 31 34 34 32 30 27 25 24 24 23 23 23 22 22 22 22 22 22 23 24 24 25 26 27 29 29 31 31 31 32 33 33 35 36
20 22 24 25 29 30 32 31 31 33 33 32 31 29 29 27 27 25 24 23 21 20 20 21 22 24 25 26 26 27 27 27 27 27 27 28 28 28 30 31 32 34 36
17 19 23 26 27 28 29 29 30 31 31 31 31 29 28 28 28 26 24 23 22 23 25 25 24 23 23 23 24 25 25 25 26 26 28 29 31 32 34 35 36 39 39
22 23 24 26 26 27 28 29 30 31 30 29 29 30 31 29 27 26 25 25 26 26 24 23 23 23 23 24 25 26 27 28 30 32 34 36 37 38 38 39 40 41 41
22 23 26 27 28 29 30 29 29 29 30 31 31 30 29 28 27 27 27 27 26 25 24 24 23 24 25 27 29 31 33 34 35 37 38 39 39 39 39 39 41 40 40
28 24 26 28 29 29 29 30 31 32 34 31 31 30 29 28 28 27 27 26 26 26 26 26 26 28 29 31 33 35 37 37 38 39 40 40 39 38 38 40 40 41 40
33 25 26 27 30 32 33 35 33 33 32 30 29 29 29 28 28 27 28 28 28 28 28 29 30 31 33 34 36 38 38 39 38 39 38 38 39 38 38 40 40 40 38
33 34 33 34 36 35 34 34 34 33 32 31 31 30 28 28 29 30 31 31 30 31 32 33 34 35 35 36 36 38 39 39 39 39 38 38 39 39 39 40 40 39 38
33 34 34 35 34 34 35 35 34 34 33 33 32 29 29 32 33 32 32 32 33 34 34 35 35 36 35 35 35 36 38 39 40 39 39 38 38 38 39 40 40 39 40
28 32 34 34 34 36 37 37 37 37 37 34 31 31 33 33 33 33 34 35 36 36 36 35 35 35 35 35 35 36 37 38 39 39 39 39 39 39 38 38 39 39 40
23 30 32 34 36 37 38 39 40 39 37 35 33 31 32 33 34 35 36 36 36 36 36 36 36 36 35 35 36 37 37 38 39 39 40 41 41 40 40 38 35 36 37
22 28 33 35 38 40 41 39 37 35 32 29 29 30 32 33 35 36 36 36 36 36 36 36 37 37 37 37 38 39 39 39 39 41 41 40 40 39 38 37 36 34 34
22 27 31 34 35 34 34 33 30 27 26 28 30 31 33 36 37 37 37 37 37 37 37 37 38 38 39 39 39 39 39 40 41 42 42 41 40 39 39 38 38 38 37
Wind_Direction
234 235 234 237 233 231 227 226 226 224 223 223 223 224 225 226 227 226 228 228 225 223 222 218 215 215 214 213 212 213 212 220 221 220 226 229 239 252 266 283 296 304 309
230 234 230 232 231 227 224 224 221 219 218 219 219 220 221 224 226 224 226 227 226 223 223 221 218 217 216 218 217 217 221 224 225 227 229 237 245 257 270 282 293 301 308
238 236 233 232 231 225 220 221 219 219 219 220 220 223 223 226 227 227 228 229 229 226 223 222 221 219 218 218 218 219 222 223 229 235 237 244 254 263 274 283 290 297 303
233 233 236 239 236 227 220 220 219 222 222 222 220 220 221 223 226 226 226 228 229 229 225 223 221 221 221 223 223 224 228 232 236 240 245 252 259 268 275 281 288 293 298
240 238 240 237 234 226 223 222 222 225 225 224 224 224 224 227 230 229 228 229 229 229 227 226 225 224 223 224 226 230 232 235 238 243 248 254 261 268 274 278 284 289 294
238 234 231 232 232 227 223 221 225 229 228 228 228 227 226 227 229 231 231 230 230 230 229 228 227 227 227 228 229 232 235 238 242 246 250 255 260 265 270 275 280 284 288
239 235 233 231 230 232 231 228 227 230 229 229 229 229 227 227 228 228 230 230 231 231 231 229 230 230 230 232 234 235 237 240 243 247 251 256 260 265 269 274 277 281 283
243 240 239 238 239 241 239 237 232 231 230 230 229 227 227 228 228 228 229 229 228 227 228 229 229 230 232 234 236 238 240 243 246 251 255 259 264 268 271 274 277 278 280
239 240 242 242 241 241 240 240 239 231 230 230 228 227 228 230 231 231 229 228 228 229 229 229 231 232 233 235 238 240 242 244 247 250 254 258 262 266 269 272 275 278 281
239 237 239 242 243 244 242 241 240 236 228 228 227 225 227 227 228 228 228 227 227 228 228 229 230 232 234 236 238 241 244 246 248 251 254 257 261 264 268 271 273 276 279
239 238 242 241 241 240 239 240 238 232 224 221 223 223 224 227 227 226 226 226 227 227 228 229 230 232 234 236 238 241 243 246 249 252 255 258 261 264 267 269 272 274 276
239 236 236 241 238 237 236 236 232 227 221 218 220 223 224 224 227 227 226 227 227 229 229 229 230 232 234 236 239 242 244 247 250 253 256 259 261 263 266 269 271 273 275
242 237 231 230 232 234 232 231 230 222 220 215 219 222 227 227 226 226 227 227 227 227 228 229 231 233 235 238 241 244 247 249 252 255 258 261 264 265 267 269 272 274 276
242 242 236 227 226 227 229 233 230 220 218 215 218 221 227 229 229 231 230 228 226 227 227 228 230 232 235 238 242 245 249 253 256 260 262 264 266 267 269 269 270 272 273
247 237 233 230 228 227 228 226 219 217 214 216 218 219 223 226 229 230 228 225 221 223 228 235 241 245 248 250 253 255 257 259 260 262 264 265 267 268 269 271 272 273 274
255 243 234 225 221 218 214 209 209 211 212 216 216 219 221 224 227 226 223 226 232 241 248 249 247 245 247 250 253 255 258 261 263 266 269 270 272 274 276 277 277 276 275
262 250 237 228 219 213 210 210 209 210 213 214 214 218 222 222 220 223 231 240 246 245 241 240 243 247 252 257 262 266 269 271 273 273 275 276 277 277 278 278 277 277 278
250 243 234 226 220 215 212 210 213 212 210 215 219 218 217 220 228 236 241 242 240 240 243 247 250 256 261 265 268 270 271 272 274 274 275 275 275 276 276 276 277 278 277
239 239 233 225 221 218 218 212 213 217 218 219 216 217 223 231 236 239 239 240 243 246 250 253 258 262 267 270 272 273 274 274 275 275 275 275 274 274 275 276 277 277 278
240 231 231 227 224 218 221 222 221 217 214 213 219 225 230 235 238 241 243 246 249 252 257 262 266 269 271 272 273 273 274 274 274 272 272 273 274 273 274 275 276 278 281
227 232 222 220 222 222 223 221 215 212 215 220 226 231 236 241 244 245 246 249 253 258 262 266 269 272 273 273 273 273 274 273 272 270 268 268 270 273 274 276 278 280 278
224 221 221 220 220 219 216 215 215 219 222 227 232 236 242 246 246 248 251 255 259 263 266 269 272 273 273 272 272 271 272 271 270 268 268 268 269 272 275 278 281 281 280
222 220 219 220 220 217 215 216 219 223 228 230 231 235 241 244 247 251 256 260 264 268 271 273 274 274 273 273 271 270 270 271 273 273 273 273 273 273 274 277 277 277 278
214 218 219 219 218 218 219 222 226 228 228 229 231 235 240 246 251 257 263 268 271 274 275 275 275 274 273 272 271 271 271 271 273 274 274 275 275 275 276 275 276 276 276
218 219 219 219 219 221 225 229 231 232 232 233 237 243 249 255 261 267 272 276 277 276 276 275 274 273 272 272 272 273 274 274 275 274 273 273 275 275 275 276 275 274 273
219 220 223 224 225 227 228 229 229 231 237 242 247 254 261 267 271 275 278 277 276 275 274 273 272 272 273 273 272 273 274 275 274 273 273 272 271 271 272 273 274 274 273
Height
3118 3119 3121 3122 3125 3127 3130 3133 3136 3138 3141 3144 3146 3148 3151 3153 3155 3157 3160 3162 3164 3166 3168 3170 3173 3174 3176 3178 3179 3181 3182 3184 3185 3186 3187 3188 3189 3189 3189 3190 3189 3189 3189
3112 3112 3114 3117 3119 3123 3126 3129 3132 3134 3137 3139 3142 3144 3146 3149 3151 3154 3157 3159 3161 3163 3165 3168 3170 3172 3174 3176 3177 3179 3181 3182 3184 3184 3185 3186 3188 3187 3188 3188 3188 3188 3188
3106 3107 3109 3112 3115 3118 3122 3125 3128 3130 3133 3135 3138 3140 3143 3145 3148 3150 3153 3155 3158 3160 3162 3165 3167 3169 3171 3173 3175 3177 3179 3181 3182 3183 3185 3185 3185 3186 3186 3186 3186 3186 3186
3099 3101 3104 3106 3110 3114 3117 3120 3123 3126 3129 3131 3134 3136 3139 3141 3144 3146 3149 3152 3154 3156 3159 3161 3163 3166 3168 3171 3173 3174 3177 3178 3180 3181 3182 3183 3184 3184 3184 3184 3184 3184 3184
3093 3096 3098 3101 3105 3108 3112 3116 3118 3120 3124 3126 3129 3132 3135 3137 3140 3142 3144 3147 3150 3153 3155 3157 3160 3162 3164 3167 3169 3172 3174 3175 3177 3178 3179 3180 3180 3181 3181 3181 3182 3182 3182
3086 3089 3092 3095 3098 3102 3105 3109 3112 3115 3118 3121 3124 3127 3130 3133 3135 3138 3140 3143 3145 3148 3151 3153 3155 3158 3160 3163 3165 3168 3170 3172 3173 3174 3175 3176 3177 3177 3178 3178 3179 3179 3178
3079 3081 3084 3088 3091 3095 3099 3103 3106 3108 3112 3115 3119 3122 3125 3128 3130 3133 3136 3138 3141 3143 3146 3149 3151 3153 3156 3158 3161 3163 3165 3167 3168 3169 3170 3171 3172 3173 3173 3174 3174 3174 3174
3070 3073 3077 3081 3085 3088 3093 3096 3099 3102 3105 3109 3113 3116 3119 3122 3124 3127 3130 3133 3135 3137 3140 3143 3146 3148 3150 3153 3155 3158 3160 3161 3163 3164 3165 3166 3167 3167 3168 3168 3169 3169 3169
3060 3064 3068 3072 3077 3080 3085 3089 3092 3096 3099 3103 3107 3110 3113 3116 3119 3122 3124 3127 3129 3132 3135 3137 3140 3142 3145 3147 3149 3152 3154 3155 3157 3158 3159 3160 3161 3161 3162 3162 3162 3162 3163
3052 3056 3060 3064 3069 3072 3077 3080 3084 3088 3093 3096 3100 3104 3107 3110 3113 3115 3118 3121 3123 3125 3128 3131 3134 3136 3138 3141 3144 3146 3147 3149 3150 3151 3152 3154 3154 3155 3155 3155 3155 3156 3155
3045 3049 3052 3056 3061 3064 3068 3072 3076 3080 3084 3088 3093 3097 3101 3104 3107 3109 3112 3114 3117 3119 3122 3125 3127 3130 3132 3135 3137 3139 3141 3143 3144 3145 3146 3147 3147 3148 3148 3148 3148 3148 3148
3039 3042 3046 3048 3052 3056 3060 3064 3069 3073 3077 3082 3087 3091 3095 3098 3101 3103 3106 3109 3111 3113 3116 3119 3121 3124 3126 3128 3130 3132 3134 3136 3137 3138 3139 3140 3141 3142 3142 3142 3142 3141 3141
3032 3034 3038 3042 3045 3048 3052 3057 3063 3067 3072 3076 3081 3084 3088 3092 3095 3098 3101 3104 3106 3108 3110 3113 3115 3117 3120 3122 3123 3125 3127 3129 3130 3131 3132 3132 3133 3134 3134 3134 3134 3134 3133
3027 3028 3031 3036 3040 3043 3048 3052 3057 3062 3066 3071 3075 3079 3083 3086 3089 3092 3095 3098 3100 3102 3105 3107 3109 3112 3114 3115 3117 3118 3120 3121 3123 3123 3125 3125 3125 3126 3126 3126 3126 3125 3124
3023 3025 3027 3031 3034 3038 3042 3047 3051 3056 3061 3066 3070 3074 3078 3081 3084 3087 3090 3092 3095 3097 3100 3103 3105 3106 3108 3109 3110 3111 3113 3114 3115 3116 3116 3117 3117 3117 3117 3117 3118 3116 3115
3019 3022 3024 3026 3030 3033 3037 3042 3046 3052 3056 3061 3065 3069 3073 3076 3079 3082 3085 3087 3090 3092 3094 3096 3098 3100 3101 3102 3103 3104 3105 3106 3107 3108 3108 3109 3109 3109 3108 3108 3108 3107 3106
3015 3017 3019 3022 3025 3029 3033 3038 3042 3046 3051 3055 3059 3064 3067 3070 3073 3076 3079 3081 3083 3085 3087 3089 3091 3093 3093 3095 3095 3096 3097 3098 3098 3099 3098 3098 3099 3099 3099 3098 3096 3095 3095
3009 3011 3014 3017 3020 3024 3028 3032 3038 3042 3046 3051 3055 3058 3062 3065 3068 3070 3073 3075 3076 3078 3080 3082 3084 3084 3085 3086 3087 3087 3088 3089 3089 3089 3089 3089 3089 3089 3088 3087 3085 3085 3085
3002 3005 3009 3012 3016 3020 3025 3028 3032 3037 3041 3043 3047 3052 3056 3059 3061 3063 3066 3067 3069 3070 3072 3073 3075 3076 3077 3078 3078 3078 3078 3078 3079 3078 3077 3077 3078 3078 3076 3075 3075 3074 3074
2995 2999 3003 3007 3011 3015 3018 3022 3026 3030 3035 3040 3043 3046 3049 3052 3054 3056 3058 3059 3061 3062 3063 3064 3066 3067 3068 3068 3068 3067 3067 3067 3068 3067 3067 3066 3066 3066 3065 3064 3063 3062 3064
2988 2991 2995 3000 3004 3007 3013 3017 3020 3025 3030 3033 3036 3039 3041 3044 3046 3048 3050 3051 3053 3054 3055 3056 3056 3057 3057 3057 3056 3056 3055 3055 3055 3055 3056 3056 3055 3053 3053 3051 3051 3052 3051
2980 2984 2989 2993 2997 3003 3007 3010 3015 3019 3023 3025 3028 3031 3033 3036 3038 3040 3042 3043 3044 3045 3045 3046 3045 3045 3045 3045 3045 3044 3043 3042 3042 3044 3044 3044 3043 3042 3040 3040 3040 3039 3038
2975 2979 2984 2988 2993 2997 3000 3004 3007 3011 3013 3016 3019 3022 3025 3027 3029 3031 3032 3033 3034 3034 3034 3033 3033 3033 3033 3033 3033 3033 3032 3031 3030 3030 3031 3031 3031 3030 3030 3030 3029 3028 3027
2970 2975 2979 2983 2987 2990 2993 2996 2999 3001 3004 3007 3010 3013 3016 3018 3020 3021 3022 3022 3022 3021 3021 3020 3020 3021 3022 3022 3021 3021 3021 3020 3020 3019 3018 3018 3018 3018 3018 3019 3019 3018 3017
2968 2971 2974 2977 2980 2983 2986 2989 2992 2994 2997 2999 3002 3005 3007 3008 3009 3010 3010 3010 3009 3009 3009 3009 3009 3009 3010 3010 3009 3009 3009 3009 3008 3007 3007 3007 3006 3006 3006 3006 3007 3007 3006
2964 2967 2970 2972 2975 2978 2980 2982 2984 2987 2989 2992 2994 2996 2997 2997 2997 2998 2998 2998 2998 2998 2998 2998 2998 2998 2997 2997 2997 2997 2996 2996 2995 2994 2995 2996 2995 2995 2995 2995 2995 2995 2995